This is the latest recevied weather packets stored in our database for station/object KC5AV. If no packets are shown the sender has not sent any weather packets the latest 10 day(s).
| Time | Temp. | Humidity | Pressure | Rain* | Wind** | Luminosity | Snow |
|---|---|---|---|---|---|---|---|
| 1777921858 | 26.67° C | 50% | 1013.9 hPa | 0 mm | - | 893 W/m² | - |
| 1777921554 | 26.11° C | 47% | 1013.8 hPa | 0 mm | - | 835 W/m² | - |
| 1777921250 | 26.11° C | 46% | 1014.3 hPa | 0 mm | - | 918 W/m² | - |
| 1777920948 | 26.67° C | 45% | 1014.3 hPa | 0 mm | - | 740 W/m² | - |
| 1777920644 | 26.67° C | 45% | 1014.1 hPa | 0 mm | - | 705 W/m² | - |
| 1777920339 | 26.67° C | 46% | 1014.3 hPa | 0 mm | - | 893 W/m² | - |
| 1777920035 | 26.11° C | 47% | 1014.4 hPa | 0 mm | - | 868 W/m² | - |
| 1777919732 | 26.11° C | 47% | 1014.7 hPa | 0 mm | - | 872 W/m² | - |
| 1777919430 | 26.11° C | 48% | 1014.6 hPa | 0 mm | - | 833 W/m² | - |
| 1777919127 | 25.56° C | 47% | 1014.8 hPa | 0 mm | - | 842 W/m² | - |
| 1777918824 | 25.56° C | 48% | 1014.7 hPa | 0 mm | - | 873 W/m² | - |
| 1777918521 | 25.56° C | 46% | 1014.8 hPa | 0 mm | - | 632 W/m² | - |
| 1777918220 | 26.11° C | 48% | 1015 hPa | 0 mm | - | 870 W/m² | - |
| 1777917918 | 25.56° C | 50% | 1015 hPa | 0 mm | - | 839 W/m² | - |
| 1777917617 | 25° C | 47% | 1015.1 hPa | 0 mm | - | 873 W/m² | - |
| 1777917313 | 25° C | 49% | 1015.4 hPa | 0 mm | - | 888 W/m² | - |
| 1777917010 | 25° C | 51% | 1015.3 hPa | 0 mm | - | 706 W/m² | - |
| 1777916708 | 25° C | 51% | 1015.4 hPa | 0 mm | - | 831 W/m² | - |
| 1777916405 | 25° C | 46% | 1015.4 hPa | 0 mm | - | 484 W/m² | - |
| 1777916102 | 25° C | 47% | 1015.8 hPa | 0 mm | - | 832 W/m² | - |
| 1777915799 | 25° C | 48% | 1015.6 hPa | 0 mm | - | 851 W/m² | - |
| 1777915495 | 25.56° C | 46% | 1015.6 hPa | 0 mm | - | 897 W/m² | - |
| 1777915191 | 25.56° C | 48% | 1015.4 hPa | 0 mm | - | 896 W/m² | - |
| 1777914889 | 25° C | 49% | 1015.7 hPa | 0 mm | - | 893 W/m² | - |
| 1777914585 | 25° C | 48% | 1015.6 hPa | 0 mm | - | 925 W/m² | - |
* Rain latest hour (hover to see other rain measurements)
** Current wind speed in m/s (hover to see current wind gust speed)